Wind_Speed
79 79 80 79 80 81 84 78 71 66 69 70 77 67 63 67 71 71 71 76 74 68 71 71 70 70 68 71 69 65 60 59 65 65 63 64 61 62 63 65 67 68 66 68 74
79 80 80 80 82 82 85 89 86 85 81 73 71 73 66 67 67 70 76 77 78 80 80 77 76 79 76 76 73 68 61 64 65 66 66 66 64 64 65 67 65 67 68 71 72
79 79 81 82 84 83 87 88 96 89 89 88 86 80 66 69 69 74 75 76 77 77 77 79 84 75 76 75 76 68 62 69 67 70 68 67 69 64 67 70 68 72 75 76 75
77 80 82 84 85 84 85 90 92 92 89 90 94 96 93 78 69 78 79 82 84 82 79 82 79 75 77 75 78 70 68 67 71 73 69 70 71 68 70 69 70 73 73 75 76
69 73 78 84 86 89 90 90 95 98 97 94 92 93 92 81 74 80 81 79 81 81 80 78 77 80 79 78 78 71 71 73 75 75 73 69 67 69 70 70 67 70 69 73 73
67 70 72 78 85 89 91 91 96 97 95 94 92 90 84 75 73 79 79 79 79 75 82 81 80 83 79 77 76 77 73 72 73 73 67 64 65 63 69 71 70 65 67 71 70
58 67 72 73 76 80 85 93 95 93 95 93 92 92 85 71 78 75 75 76 78 73 74 78 81 82 78 79 78 78 75 70 66 69 70 65 60 67 68 68 64 63 65 71 70
47 48 54 65 75 79 81 84 89 95 95 93 92 90 81 80 81 76 76 72 72 72 71 75 73 70 67 69 68 67 62 59 64 63 65 56 63 62 63 61 58 62 68 66 72
56 57 58 57 61 65 73 78 85 86 91 92 93 88 81 84 84 85 83 75 76 68 71 71 64 62 61 64 66 60 57 56 59 56 61 58 61 61 58 57 61 64 68 71 76
65 67 68 66 66 65 66 71 81 83 84 86 88 84 81 84 90 87 84 79 74 71 67 66 65 59 59 62 62 56 51 51 55 53 54 55 56 55 55 54 58 64 67 70 71
76 78 80 77 75 72 73 72 75 76 79 77 76 72 77 80 85 85 86 84 84 74 63 69 58 64 62 62 58 53 52 55 57 57 56 59 53 50 51 53 60 66 63 72 67
84 87 89 90 87 82 81 80 78 75 68 62 66 58 59 64 73 80 85 85 80 74 74 68 56 67 69 59 57 54 55 60 60 58 55 50 45 49 55 60 63 63 66 60 71
89 92 97 99 99 94 90 88 84 79 72 68 70 63 68 71 63 67 69 76 78 77 73 67 66 71 63 59 57 58 57 57 53 51 43 43 47 53 58 59 58 61 53 62 61
99 102 102 102 106 106 98 96 89 82 79 67 73 73 74 79 69 69 66 67 73 72 73 69 69 67 61 59 57 53 53 53 50 47 44 47 52 56 56 60 60 58 53 52 52
104 104 105 111 108 109 106 106 95 89 81 80 84 80 83 78 74 75 78 72 67 68 69 60 60 58 63 57 57 54 53 50 47 45 49 52 56 59 60 65 61 53 42 46 48
76 83 93 102 111 108 105 107 106 98 85 93 85 86 82 80 80 83 85 78 75 74 68 62 62 66 61 60 52 59 48 50 52 51 51 60 59 60 53 57 49 40 50 45 43
59 63 70 81 92 104 110 108 105 96 94 106 89 87 87 90 88 88 91 83 77 70 59 60 59 59 60 57 54 56 55 54 53 53 61 63 53 57 46 41 37 33 32 30 34
51 53 55 64 71 80 93 107 102 100 113 116 95 92 100 96 95 93 91 80 77 76 69 65 64 58 59 59 62 61 62 57 55 57 57 53 38 48 38 36 30 28 24 25 26
44 44 48 52 57 64 74 84 98 102 113 107 98 105 101 103 101 98 86 77 72 74 72 67 63 63 59 64 65 62 56 61 59 57 55 52 44 38 34 29 29 19 18 16 22
37 36 40 44 49 55 62 70 80 97 110 115 118 117 103 101 107 100 88 80 76 73 76 78 74 74 77 75 67 61 65 65 58 53 51 51 44 34 28 24 22 17 13 14 19
32 32 32 36 40 46 54 59 66 79 99 112 119 120 113 102 108 104 90 87 82 82 79 80 82 84 84 71 69 70 65 62 58 54 46 45 31 23 27 25 22 12 12 15 18
31 29 29 31 33 36 43 50 57 68 79 98 115 120 123 110 109 105 95 97 92 86 79 72 79 84 79 75 76 74 71 70 63 56 57 56 40 25 27 24 16 11 9 12 17
29 27 26 30 30 32 35 42 52 60 70 88 106 117 123 120 113 104 104 100 93 89 83 85 74 74 74 78 81 74 67 62 61 57 51 36 30 28 25 17 11 6 7 10 15
29 25 25 26 28 28 35 38 47 53 63 77 92 104 114 120 118 107 106 103 97 91 88 84 77 65 59 54 56 56 53 47 42 33 29 30 33 29 25 18 8 6 5 10 15
28 24 21 24 27 29 32 34 42 49 60 69 79 93 101 110 115 109 109 104 100 97 90 84 73 65 59 58 56 49 43 37 32 35 29 39 35 29 24 19 8 8 3 8 14
27 22 20 19 24 29 31 35 40 44 54 62 71 78 88 97 105 109 107 106 106 100 93 83 73 71 68 62 55 48 43 35 36 42 43 43 33 29 27 20 11 8 4 7 11
29 22 18 17 20 25 30 32 35 38 47 54 62 69 77 86 96 98 103 107 107 102 93 85 80 78 68 63 60 51 41 38 36 42 40 37 34 33 26 20 11 7 6 9 9
Wind_Direction
239 242 242 241 242 236 236 231 229 232 237 241 245 244 248 246 247 244 247 248 249 249 252 253 254 260 266 268 271 275 278 276 282 283 284 289 286 286 290 294 296 301 306 303 304
240 239 241 243 244 243 239 238 240 236 236 233 240 238 240 243 246 247 247 251 249 251 253 253 258 272 268 269 270 277 278 277 279 281 281 286 288 289 290 293 297 301 305 304 302
245 245 245 245 244 244 241 241 240 249 250 244 243 243 237 241 243 245 247 248 249 251 252 257 263 267 267 266 268 273 272 274 276 279 281 284 289 290 289 291 296 299 302 304 300
244 246 246 248 249 248 247 245 245 247 251 252 253 254 253 251 250 245 244 247 249 249 252 254 256 260 260 267 269 271 273 271 278 280 282 285 288 287 289 290 296 297 302 299 296
246 247 247 247 247 248 248 247 245 247 247 250 253 254 255 256 261 249 245 245 249 251 249 250 253 256 260 265 268 271 271 273 275 275 280 284 288 288 289 292 294 300 298 295 292
249 248 249 248 248 248 248 248 248 246 249 251 251 250 252 256 247 249 249 251 249 247 248 249 251 256 261 262 267 268 272 272 275 278 281 280 282 285 287 292 294 298 293 293 290
261 254 251 251 251 249 250 250 249 246 249 249 250 250 249 249 247 249 253 250 251 250 247 247 251 256 260 261 264 267 269 271 271 273 276 278 285 285 286 289 294 295 290 291 298
259 262 261 259 254 250 250 248 248 246 248 249 250 248 247 246 248 253 250 247 250 252 250 251 252 255 259 258 260 263 265 267 269 270 274 277 280 283 286 290 293 288 288 292 295
269 264 256 254 256 257 252 246 247 246 246 248 248 249 247 247 246 244 248 252 253 254 251 252 255 253 256 256 257 258 260 264 269 274 274 275 276 280 285 289 287 287 289 293 296
269 267 262 258 254 250 252 254 248 246 247 245 247 247 245 245 246 248 250 250 252 251 252 251 251 253 254 254 256 258 267 266 270 271 272 274 274 280 283 282 285 288 293 298 306
268 267 265 261 257 253 251 247 249 251 250 247 247 246 247 246 246 247 247 248 249 251 250 248 250 251 250 253 258 261 264 267 268 269 271 272 275 280 281 279 282 286 299 301 311
269 264 260 259 256 254 251 249 247 245 246 249 247 244 247 244 245 246 245 244 245 248 249 252 249 249 250 256 259 262 263 265 268 269 272 272 276 276 273 276 285 294 298 311 312
268 262 257 253 252 251 249 249 247 246 244 241 245 242 239 243 238 246 243 244 243 244 247 248 247 252 256 259 260 258 261 262 266 270 271 273 274 275 278 282 292 299 314 313 314
261 256 253 253 250 250 247 248 246 246 243 237 238 236 239 240 234 241 241 243 240 240 239 241 247 253 256 258 261 264 261 263 264 269 270 273 272 277 278 286 296 307 312 308 307
271 265 256 249 249 246 246 247 245 244 241 235 233 231 234 241 236 235 236 233 238 237 238 238 240 240 245 247 250 248 255 260 266 268 266 271 270 275 279 283 296 307 302 302 299
269 263 258 251 246 247 245 244 243 241 237 235 233 231 232 233 235 235 238 233 233 237 236 234 236 244 249 247 246 246 251 253 256 261 267 267 272 275 288 296 306 301 302 305 302
273 264 257 254 249 244 243 241 240 240 235 235 234 233 230 229 231 232 234 232 230 233 237 238 236 237 239 241 243 246 246 249 254 259 261 266 275 279 299 306 298 291 294 291 298
277 268 261 252 249 245 242 239 238 232 231 230 231 230 229 227 230 230 234 232 230 229 227 228 232 234 235 236 240 241 245 250 255 255 258 267 288 293 293 298 281 278 279 285 308
281 271 263 256 250 245 241 239 233 228 230 236 236 230 227 226 227 230 229 232 234 232 227 226 229 231 232 232 236 238 239 244 245 253 261 271 286 292 288 279 271 277 279 301 326
286 275 266 258 251 245 240 234 231 226 224 228 230 231 228 225 226 226 228 226 228 233 231 226 225 229 229 230 232 235 237 241 249 260 265 270 280 287 261 258 263 267 306 321 336
295 281 272 264 254 246 241 236 230 226 224 223 229 230 231 225 227 226 223 228 226 226 225 228 227 232 231 233 237 240 247 250 256 261 267 273 270 253 248 249 253 274 318 343 347
302 289 278 267 259 249 240 234 230 223 222 224 226 228 230 228 225 225 219 225 226 226 227 232 229 231 233 233 237 240 243 247 255 263 265 270 267 230 236 239 245 258 335 346 358
306 294 279 269 257 251 243 233 227 222 220 220 219 225 228 228 227 223 221 222 225 226 225 226 228 234 234 236 239 242 251 258 262 265 269 262 222 217 223 227 238 257 320 10 1
310 298 281 267 258 247 241 234 227 222 219 219 220 221 224 226 227 223 221 221 221 224 225 227 228 231 242 247 245 244 244 246 251 244 234 212 209 211 217 220 230 248 300 30 10
313 302 285 267 256 247 241 234 229 221 219 219 219 219 221 222 224 223 221 221 220 222 223 225 225 227 231 237 239 237 238 233 225 219 207 214 202 209 214 217 231 249 300 19 17
319 307 291 270 256 251 242 231 230 222 222 219 219 220 222 220 221 221 221 220 220 221 222 223 220 222 226 229 231 237 238 230 222 220 202 213 198 205 214 212 213 246 312 1 8
328 321 302 279 257 246 245 238 231 226 224 221 221 218 219 218 221 220 218 220 221 220 221 222 222 222 222 229 229 224 231 235 223 222 215 213 203 207 207 213 210 237 311 323 356
Height
10788 10790 10793 10795 10801 10807 10811 10816 10819 10821 10826 10829 10833 10836 10842 10845 10852 10858 10857 10850 10862 10862 10860 10858 10858 10862 10869 10869 10874 10881 10883 10876 10870 10870 10869 10866 10867 10864 10863 10862 10860 10855 10848 10839 10834
10774 10776 10778 10783 10788 10791 10796 10799 10801 10807 10810 10816 10820 10824 10831 10835 10842 10848 10837 10845 10849 10852 10847 10845 10847 10856 10859 10856 10864 10871 10875 10865 10862 10859 10861 10857 10855 10853 10852 10848 10849 10844 10838 10831 10823
10765 10767 10770 10773 10776 10776 10781 10785 10787 10789 10793 10798 10804 10812 10819 10827 10832 10830 10832 10830 10834 10838 10837 10838 10837 10847 10849 10849 10848 10859 10864 10854 10850 10850 10850 10849 10845 10844 10841 10836 10838 10833 10826 10818 10812
10754 10755 10756 10758 10759 10760 10764 10767 10771 10774 10777 10780 10785 10791 10802 10813 10825 10816 10813 10816 10818 10823 10826 10827 10827 10834 10836 10840 10834 10848 10850 10847 10843 10838 10840 10840 10837 10831 10830 10827 10828 10823 10816 10807 10800
10740 10741 10742 10743 10744 10745 10747 10749 10753 10756 10760 10765 10772 10779 10789 10803 10814 10792 10795 10800 10804 10809 10812 10814 10818 10817 10827 10828 10827 10836 10836 10836 10833 10830 10830 10831 10827 10823 10817 10818 10818 10813 10804 10797 10789
10726 10725 10725 10725 10727 10729 10730 10734 10736 10737 10742 10748 10757 10764 10776 10799 10775 10776 10780 10788 10788 10791 10797 10801 10804 10801 10816 10818 10819 10820 10826 10826 10821 10820 10820 10821 10819 10815 10807 10806 10806 10803 10792 10786 10779
10713 10711 10710 10708 10709 10709 10711 10713 10715 10717 10724 10733 10740 10748 10768 10784 10754 10760 10771 10772 10772 10778 10784 10784 10787 10794 10803 10807 10808 10811 10814 10816 10809 10809 10810 10811 10812 10804 10801 10797 10794 10792 10784 10778 10769
10698 10696 10694 10694 10692 10693 10694 10694 10693 10698 10704 10716 10721 10732 10760 10746 10741 10751 10746 10756 10759 10763 10771 10768 10776 10787 10790 10792 10796 10797 10802 10803 10795 10800 10797 10806 10798 10794 10792 10789 10784 10779 10775 10771 10762
10683 10681 10677 10674 10674 10675 10674 10673 10675 10680 10686 10695 10704 10720 10735 10727 10726 10715 10726 10746 10743 10755 10755 10756 10769 10773 10776 10780 10781 10785 10788 10790 10787 10792 10789 10795 10790 10785 10784 10780 10775 10771 10766 10760 10751
10661 10658 10655 10655 10656 10653 10653 10653 10656 10659 10666 10681 10691 10701 10708 10702 10701 10711 10719 10730 10730 10735 10746 10751 10755 10764 10763 10763 10764 10777 10778 10780 10775 10779 10781 10783 10782 10777 10773 10772 10768 10761 10757 10749 10742
10637 10634 10631 10630 10631 10632 10633 10631 10632 10639 10654 10667 10674 10684 10685 10686 10688 10688 10697 10709 10716 10725 10736 10731 10752 10744 10746 10750 10758 10766 10768 10766 10766 10769 10773 10770 10772 10768 10767 10764 10761 10756 10749 10741 10733
10606 10602 10599 10600 10601 10605 10606 10608 10613 10621 10638 10648 10656 10665 10666 10667 10672 10671 10681 10690 10700 10712 10710 10723 10741 10724 10726 10745 10750 10755 10757 10750 10754 10756 10762 10760 10762 10762 10761 10759 10755 10748 10738 10731 10722
10566 10563 10562 10563 10565 10573 10576 10578 10591 10604 10620 10631 10638 10649 10644 10643 10658 10655 10663 10670 10684 10691 10702 10711 10711 10708 10726 10732 10738 10740 10742 10738 10742 10748 10752 10750 10752 10753 10753 10749 10745 10739 10729 10718 10712
10521 10518 10518 10522 10528 10533 10543 10550 10564 10585 10596 10622 10615 10626 10621 10617 10641 10634 10644 10649 10663 10678 10680 10695 10700 10702 10712 10720 10722 10728 10722 10729 10733 10740 10740 10742 10743 10744 10745 10742 10737 10732 10722 10714 10706
10468 10467 10474 10476 10481 10489 10510 10516 10538 10555 10571 10586 10578 10590 10593 10609 10624 10621 10612 10629 10645 10656 10669 10692 10684 10687 10696 10705 10708 10711 10718 10722 10727 10730 10731 10734 10736 10738 10737 10736 10730 10724 10717 10708 10702
10421 10420 10422 10429 10436 10457 10467 10481 10501 10523 10554 10538 10558 10566 10582 10589 10597 10595 10600 10616 10625 10632 10655 10669 10669 10675 10689 10690 10702 10691 10712 10714 10717 10723 10729 10720 10728 10731 10729 10727 10721 10715 10709 10702 10695
10389 10387 10388 10391 10400 10420 10431 10444 10466 10503 10522 10495 10533 10550 10555 10557 10564 10569 10570 10594 10616 10628 10647 10652 10661 10665 10671 10680 10688 10690 10697 10705 10711 10717 10715 10714 10719 10723 10720 10720 10714 10708 10702 10699 10690
10364 10363 10365 10365 10372 10384 10390 10406 10439 10477 10468 10460 10510 10520 10515 10533 10540 10547 10558 10586 10603 10617 10626 10635 10643 10655 10662 10670 10673 10679 10684 10695 10702 10703 10707 10710 10709 10716 10711 10712 10710 10705 10700 10696 10687
10343 10343 10341 10344 10350 10357 10364 10379 10403 10429 10434 10454 10480 10468 10493 10510 10518 10528 10560 10581 10598 10607 10621 10627 10638 10642 10650 10651 10655 10669 10684 10679 10687 10694 10701 10703 10700 10706 10704 10705 10704 10700 10696 10691 10684
10327 10324 10322 10324 10328 10333 10338 10350 10366 10385 10399 10411 10424 10431 10469 10490 10497 10515 10547 10565 10576 10588 10601 10610 10618 10620 10622 10630 10647 10664 10663 10670 10682 10689 10690 10692 10694 10698 10696 10699 10698 10696 10691 10687 10680
10313 10309 10308 10307 10310 10315 10321 10329 10343 10355 10371 10388 10394 10418 10438 10473 10479 10502 10538 10544 10558 10559 10570 10584 10600 10594 10601 10636 10647 10647 10656 10663 10670 10676 10680 10684 10687 10691 10690 10692 10692 10692 10688 10682 10678
10300 10297 10295 10293 10296 10299 10305 10314 10322 10334 10352 10374 10380 10395 10410 10447 10464 10486 10519 10513 10531 10545 10564 10582 10579 10584 10612 10618 10623 10633 10644 10651 10662 10668 10673 10678 10681 10683 10684 10686 10687 10688 10683 10680 10675
10288 10285 10283 10280 10283 10287 10291 10298 10304 10315 10330 10339 10352 10366 10385 10418 10443 10474 10489 10500 10518 10532 10549 10548 10575 10581 10596 10605 10613 10633 10645 10653 10655 10661 10666 10671 10673 10676 10680 10680 10682 10682 10680 10677 10673
10277 10274 10272 10271 10271 10275 10276 10283 10289 10301 10311 10319 10331 10345 10362 10389 10416 10452 10470 10484 10500 10514 10530 10542 10562 10585 10600 10613 10616 10626 10633 10640 10645 10651 10656 10662 10666 10672 10675 10676 10677 10678 10678 10672 10670
10266 10263 10262 10261 10262 10263 10265 10272 10277 10287 10293 10303 10315 10328 10344 10367 10391 10429 10448 10474 10487 10495 10511 10534 10560 10578 10586 10594 10604 10616 10624 10630 10637 10641 10651 10649 10660 10667 10671 10672 10672 10675 10673 10670 10667
10257 10254 10252 10252 10253 10254 10256 10259 10263 10274 10282 10291 10301 10321 10334 10356 10375 10407 10433 10454 10465 10480 10501 10525 10551 10560 10566 10578 10593 10606 10616 10624 10629 10631 10638 10642 10657 10663 10666 10668 10668 10669 10668 10667 10666
10249 10246 10244 10244 10244 10245 10246 10251 10257 10265 10272 10282 10294 10307 10323 10345 10358 10383 10417 10435 10451 10471 10495 10517 10531 10541 10563 10573 10578 10592 10610 10618 10626 10629 10635 10641 10649 10655 10661 10662 10663 10664 10663 10665 10664